Find Starlink 34082

NORAD ID: 64100 Int'l Des: 2025-110 Owner: SPXS Country: US Constellation: starlink operational
LEOCIRCULAR

当前视图

正在加载3D地球...

About Starlink 34082

Starlink 34082 (NORAD 64100) is a starlink constellation satellite (v2 mini) launched May 23, 2025 by SPXS of US. It operates in LEO, CIRCULAR orbit with a mass of 575.00 kg.

即将过境

Passes for default location (London). Set your location on the main map for personalized predictions.

高度历史

Loading altitude history...

两行轨道根数

1 64100U 25110E 26235.73057604 .00025311 00000-0 86334-3 0 9999
2 64100 53.1619 331.1304 0000548 172.0559 188.0451 15.30217377 71459
Epoch: Aug 23, 2026 • Age: 43 hours

当前状态

高度 479.1 km
远地点 / 近地点 N/A
速度 7.63 km/s
星下点 -16.94°S, 8.88°W
发射日期 May 23, 2025
运行时间 1.2 years
类型 internet

技术详情

分类 Payload
质量 575.00 kg
干质量 530.00 kg
总质量 575.00 kg
长度 0.30 m
直径 4.10 m
跨度 29.00 m
形状 Box + pan
制造商 SPXS
平台类型 Starlink V2MO
阶段状态 In Orbit
所有者/国家 SPXS/US

Most Searched